Flag for Switzerland Weather past 2 weeks in Bellinzona, Ticino, Switzerland

Now
81 °F

Warm.


Feels Like: 82 °F
Forecast: 72 / 93 °F
Wind: 2 mph from North

Location: Locarno-Magadino

Current Time: Jul 6, 2015 at 12:07:00 PM

Latest Report: Jul 6, 2015 at 11:00 AM


Visibility: N/A

Pressure: 30.06 "Hg

Humidity: 54%

Dew point: 62 °F

Location of BellinzonaLocation

Historic Weather in Bellinzona — Graph

°F

Bellinzona temperature yesterday

Maximum temperature yesterday: 91 °F (at 4:00 PM)
Minimum temperature yesterday: 68 °F (at 6:00 AM)
Average temperature yesterday: 79 °F

Past Weeks' High & Low Weather Summary

 TemperatureHumidityPressure
High91 °F (Jul 5, 4:00 PM)98% (Jun 23, 3:00 AM)30.39 "Hg (Jun 23, 3:00 AM)
Low54 °F (Jun 26, 6:00 AM)23% (Jun 23, 7:00 PM)29.71 "Hg (Jun 23, 4:00 PM)
Average73 °F69%30.07 "Hg
* Reported Jun 21 10:00 AM — Jul 6 10:00 AM, Bellinzona, Weather by CustomWeather, © 2015

Note: Actual official high and low records may vary slightly from our data, if they occured in-between our weather recording intervals... More about our weather records

Advertising

Bellinzona weather history for previous 24 hours

 ConditionsComfort  
Time TempWeatherWind HumidityBarometerVisibility
10:00 AM
Mon, Jul 6
78 °FWarm.1 mph60%30.09 "HgN/A
9:00 AM75 °FMild.2 mph68%30.10 "HgN/A
8:00 AM72 °FMild.3 mph81%30.09 "HgN/A
7:00 AM69 °FMild.3 mph81%30.10 "HgN/A
6:00 AM65 °FMild.2 mph91%30.10 "HgN/A
4:00 AM68 °FMild.6 mph84%30.11 "HgN/A
3:00 AM67 °FMild.1 mph94%30.13 "HgN/A
2:00 AM69 °FMild.3 mph86%30.13 "HgN/A
1:00 AM69 °FMild.2 mph94%30.14 "HgN/A
12:00 AM71 °FMild.2 mph87%30.13 "HgN/A
10:00 PM
Sun, Jul 5
76 °FMild.5 mph81%30.10 "HgN/A
9:00 PM80 °FWarm.3 mph65%30.06 "HgN/A
8:00 PM82 °FWarm.1 mph63%30.02 "HgN/A
7:00 PM83 °FWarm.3 mph53%30.03 "HgN/A
6:00 PM82 °FWarm.3 mph63%30.02 "HgN/A
5:00 PM86 °FWarm.5 mph59%30.03 "HgN/A
4:00 PM91 °FHot.8 mph53%29.99 "HgN/A
3:00 PM90 °FHot.9 mph56%30.01 "HgN/A
2:00 PM89 °FHot.9 mph57%30.03 "HgN/A
1:00 PM86 °FWarm.9 mph59%30.05 "HgN/A
12:00 PM86 °FWarm.6 mph55%30.07 "HgN/A
Weather by CustomWeather, © 2015

See weather overviewHow to use our weather pages